TimeCST,TemperatureF,Dew PointF,Humidity,Sea Level PressureIn,VisibilityMPH,Wind Direction,Wind SpeedMPH,Gust SpeedMPH,PrecipitationIn,Events,Conditions,WindDirDegrees,DateUTC
12:15 AM,39.2,30.2,70,29.60,10.0,South,9.2,-,N/A,,Clear,190,2013-11-20 06:15:00
12:35 AM,39.2,30.2,70,29.61,10.0,South,6.9,-,N/A,,Clear,190,2013-11-20 06:35:00
12:55 AM,37.4,28.4,70,29.61,10.0,SSW,4.6,-,N/A,,Clear,200,2013-11-20 06:55:00
1:15 AM,37.4,30.2,75,29.62,10.0,West,5.8,-,N/A,,Clear,260,2013-11-20 07:15:00
1:35 AM,37.4,30.2,75,29.63,10.0,SW,8.1,-,N/A,,Clear,220,2013-11-20 07:35:00
1:55 AM,37.4,28.4,70,29.63,10.0,SW,6.9,-,N/A,,Clear,220,2013-11-20 07:55:00
2:15 AM,35.6,28.4,75,29.64,10.0,SW,6.9,-,N/A,,Clear,220,2013-11-20 08:15:00
2:35 AM,35.6,28.4,75,29.65,10.0,SW,6.9,-,N/A,,Clear,230,2013-11-20 08:35:00
2:55 AM,37.4,30.2,75,29.66,10.0,SW,8.1,-,N/A,,Clear,220,2013-11-20 08:55:00
3:15 AM,35.6,28.4,75,29.67,10.0,WSW,5.8,-,N/A,,Clear,240,2013-11-20 09:15:00
3:35 AM,35.6,30.2,81,29.68,10.0,SW,3.5,-,N/A,,Clear,230,2013-11-20 09:35:00
3:55 AM,33.8,28.4,81,29.70,10.0,West,4.6,-,N/A,,Clear,280,2013-11-20 09:55:00
4:15 AM,33.8,28.4,81,29.71,10.0,West,5.8,-,N/A,,Clear,280,2013-11-20 10:15:00
4:35 AM,33.8,28.4,81,29.72,10.0,WNW,6.9,-,N/A,,Clear,300,2013-11-20 10:35:00
4:55 AM,32.0,26.6,80,29.73,10.0,NW,9.2,-,N/A,,Clear,310,2013-11-20 10:55:00
5:15 AM,30.2,26.6,86,29.74,10.0,NNW,9.2,-,N/A,,Clear,330,2013-11-20 11:15:00
5:35 AM,30.2,24.8,80,29.75,10.0,NNW,8.1,-,N/A,,Clear,340,2013-11-20 11:35:00
5:55 AM,30.2,24.8,80,29.76,10.0,NNW,9.2,-,N/A,,Clear,340,2013-11-20 11:55:00
6:15 AM,30.2,24.8,80,29.77,10.0,NNW,12.7,-,N/A,,Clear,340,2013-11-20 12:15:00
6:35 AM,28.4,23.0,80,29.78,10.0,NNW,15.0,-,N/A,,Clear,340,2013-11-20 12:35:00
6:55 AM,28.4,21.2,74,29.79,10.0,NNW,12.7,-,N/A,,Clear,340,2013-11-20 12:55:00
7:15 AM,28.4,21.2,74,29.80,10.0,NNW,12.7,-,N/A,,Clear,340,2013-11-20 13:15:00
7:35 AM,26.6,21.2,80,29.81,9.0,NNW,11.5,-,N/A,,Clear,330,2013-11-20 13:35:00
7:55 AM,26.6,21.2,80,29.83,9.0,NNW,11.5,-,N/A,,Partly Cloudy,330,2013-11-20 13:55:00
8:15 AM,26.6,21.2,80,29.83,9.0,NNW,10.4,-,N/A,,Mostly Cloudy,340,2013-11-20 14:15:00
8:35 AM,28.4,21.2,74,29.85,9.0,NNW,10.4,-,N/A,,Overcast,330,2013-11-20 14:35:00
8:55 AM,28.4,21.2,74,29.86,9.0,NNW,9.2,-,N/A,,Mostly Cloudy,340,2013-11-20 14:55:00
9:15 AM,28.4,21.2,74,29.87,10.0,North,12.7,-,N/A,,Partly Cloudy,360,2013-11-20 15:15:00
9:35 AM,28.4,21.2,74,29.88,10.0,North,10.4,-,N/A,,Clear,350,2013-11-20 15:35:00
9:55 AM,28.4,21.2,74,29.88,10.0,North,11.5,-,N/A,,Mostly Cloudy,360,2013-11-20 15:55:00
10:15 AM,28.4,21.2,74,29.89,10.0,North,11.5,-,N/A,,Overcast,10,2013-11-20 16:15:00
10:35 AM,28.4,21.2,74,29.89,10.0,North,12.7,-,N/A,,Overcast,350,2013-11-20 16:35:00
10:55 AM,28.4,21.2,74,29.90,10.0,North,13.8,-,N/A,,Overcast,350,2013-11-20 16:55:00
11:15 AM,28.4,21.2,74,29.89,10.0,North,12.7,-,N/A,,Overcast,10,2013-11-20 17:15:00
11:35 AM,30.2,21.2,69,29.90,10.0,North,15.0,-,N/A,,Scattered Clouds,10,2013-11-20 17:35:00
11:55 AM,30.2,21.2,69,29.90,10.0,North,11.5,16.1,N/A,,Mostly Cloudy,360,2013-11-20 17:55:00
12:15 PM,30.2,21.2,69,29.91,10.0,North,12.7,-,N/A,,Overcast,10,2013-11-20 18:15:00
12:35 PM,28.4,19.4,69,29.91,10.0,North,11.5,-,N/A,,Overcast,350,2013-11-20 18:35:00
12:55 PM,30.2,21.2,69,29.92,10.0,North,12.7,-,N/A,,Overcast,10,2013-11-20 18:55:00
1:15 PM,30.2,19.4,64,29.92,10.0,North,12.7,-,N/A,,Overcast,350,2013-11-20 19:15:00
1:35 PM,30.2,21.2,69,29.92,10.0,NNE,12.7,-,N/A,,Overcast,20,2013-11-20 19:35:00
1:55 PM,30.2,21.2,69,29.92,10.0,NNE,12.7,-,N/A,,Overcast,20,2013-11-20 19:55:00
2:15 PM,30.2,21.2,69,29.91,10.0,North,12.7,-,N/A,,Overcast,10,2013-11-20 20:15:00
2:35 PM,30.2,21.2,69,29.91,10.0,North,12.7,-,N/A,,Overcast,10,2013-11-20 20:35:00
2:55 PM,30.2,19.4,64,29.91,10.0,North,11.5,-,N/A,,Overcast,10,2013-11-20 20:55:00
3:15 PM,30.2,21.2,69,29.92,10.0,NNE,9.2,-,N/A,,Overcast,20,2013-11-20 21:15:00
3:35 PM,30.2,21.2,69,29.92,10.0,NNE,10.4,-,N/A,,Overcast,30,2013-11-20 21:35:00
3:55 PM,30.2,21.2,69,29.93,10.0,NNE,9.2,-,N/A,,Overcast,20,2013-11-20 21:55:00
4:15 PM,28.4,21.2,74,29.94,10.0,North,12.7,-,N/A,,Overcast,10,2013-11-20 22:15:00
4:35 PM,28.4,21.2,74,29.94,10.0,North,13.8,-,N/A,,Overcast,10,2013-11-20 22:35:00
4:55 PM,28.4,21.2,74,29.95,10.0,North,12.7,-,N/A,,Overcast,360,2013-11-20 22:55:00
5:15 PM,28.4,21.2,74,29.96,10.0,North,10.4,-,N/A,,Overcast,10,2013-11-20 23:15:00
5:35 PM,28.4,21.2,74,29.97,10.0,North,11.5,-,N/A,,Overcast,360,2013-11-20 23:35:00
5:55 PM,28.4,19.4,69,29.99,10.0,North,12.7,-,N/A,,Overcast,350,2013-11-20 23:55:00
6:15 PM,28.4,19.4,69,30.00,10.0,North,15.0,-,N/A,,Overcast,350,2013-11-21 00:15:00
6:35 PM,26.6,19.4,74,30.01,10.0,North,12.7,-,N/A,,Overcast,350,2013-11-21 00:35:00
6:55 PM,26.6,17.6,69,30.01,10.0,North,12.7,-,N/A,,Overcast,350,2013-11-21 00:55:00
7:15 PM,24.8,17.6,74,30.01,10.0,North,15.0,-,N/A,,Overcast,350,2013-11-21 01:15:00
7:35 PM,24.8,17.6,74,30.03,10.0,North,13.8,19.6,N/A,,Overcast,350,2013-11-21 01:35:00
7:55 PM,24.8,15.8,69,30.04,10.0,North,17.3,-,N/A,,Overcast,360,2013-11-21 01:55:00
8:15 PM,23.0,15.8,74,30.06,10.0,NNW,15.0,-,N/A,,Overcast,340,2013-11-21 02:15:00
8:35 PM,23.0,15.8,74,30.06,10.0,North,19.6,-,N/A,,Overcast,350,2013-11-21 02:35:00
8:55 PM,21.2,15.8,80,30.07,10.0,NNW,15.0,19.6,N/A,,Overcast,340,2013-11-21 02:55:00
9:15 PM,21.2,14.0,74,30.08,10.0,NNW,16.1,-,N/A,,Overcast,330,2013-11-21 03:15:00
9:35 PM,19.4,12.2,74,30.09,10.0,NNW,13.8,-,N/A,,Overcast,340,2013-11-21 03:35:00
9:55 PM,19.4,14.0,80,30.09,9.0,NNW,12.7,18.4,N/A,,Overcast,340,2013-11-21 03:55:00
10:15 PM,19.4,14.0,80,30.09,5.0,North,13.8,-,N/A,,Overcast,350,2013-11-21 04:15:00
10:35 PM,19.4,14.0,80,30.10,3.0,NNW,13.8,-,N/A,,Overcast,340,2013-11-21 04:35:00
10:55 PM,19.4,14.0,80,30.11,8.0,NNW,16.1,-,N/A,,Overcast,330,2013-11-21 04:55:00
11:15 PM,19.4,12.2,74,30.13,10.0,NW,15.0,-,N/A,,Overcast,320,2013-11-21 05:15:00
11:35 PM,19.4,12.2,74,30.13,8.0,NNW,18.4,-,N/A,,Overcast,330,2013-11-21 05:35:00
11:55 PM,17.6,12.2,79,30.14,6.0,NW,16.1,-,N/A,,Overcast,320,2013-11-21 05:55:00